Time,TemperatureF,DewpointF,PressureIn,WindDirection,WindDirectionDegrees,WindSpeedMPH,WindSpeedGustMPH,Humidity,HourlyPrecipIn,Conditions,Clouds,dailyrainin,SoftwareType,DateUTC
2013-03-01 00:00:00,46.7,44.2,29.94,WNW,301,0.0,0.0,91,0.00,,---,0.00,VWS V14.01,2013-03-01 05:00:00,
2013-03-01 00:10:00,49.6,45.9,29.93,WNW,301,0.0,1.0,87,0.00,,---,0.00,VWS V14.01,2013-03-01 05:10:00,
2013-03-01 00:15:00,49.4,46.0,29.93,WNW,301,0.0,1.0,88,0.00,,---,0.00,VWS V14.01,2013-03-01 05:15:00,
2013-03-01 00:20:00,49.0,45.6,29.93,WNW,301,0.0,1.0,88,0.00,,---,0.00,VWS V14.01,2013-03-01 05:20:00,
2013-03-01 00:25:00,48.7,45.3,29.93,WNW,301,0.0,1.0,88,0.00,,---,0.00,VWS V14.01,2013-03-01 05:25:00,
2013-03-01 00:30:00,48.4,45.3,29.93,WNW,301,0.0,1.0,89,0.00,,---,0.00,VWS V14.01,2013-03-01 05:30:00,
2013-03-01 00:35:00,48.1,45.3,29.94,WNW,301,0.0,0.0,90,0.00,,---,0.00,VWS V14.01,2013-03-01 05:35:00,
2013-03-01 00:40:00,47.8,45.0,29.94,WNW,301,0.0,0.0,90,0.00,,---,0.00,VWS V14.01,2013-03-01 05:40:00,
2013-03-01 00:45:00,47.6,44.8,29.93,WNW,301,0.0,0.0,90,0.00,,---,0.00,VWS V14.01,2013-03-01 05:45:00,
2013-03-01 00:50:00,47.3,44.8,29.94,WNW,301,0.0,0.0,91,0.00,,---,0.00,VWS V14.01,2013-03-01 05:50:00,
2013-03-01 00:55:00,47.0,44.2,29.94,WNW,301,0.0,0.0,90,0.00,,---,0.00,VWS V14.01,2013-03-01 05:55:00,
2013-03-01 01:00:00,46.7,44.2,29.94,WNW,301,0.0,0.0,91,0.00,,---,0.00,VWS V14.01,2013-03-01 06:00:00,
2013-03-01 01:05:00,46.5,44.3,29.94,WNW,301,0.0,0.0,92,0.00,,---,0.00,VWS V14.01,2013-03-01 06:05:00,
2013-03-01 01:10:00,46.4,44.2,29.94,WNW,301,0.0,0.0,92,0.00,,---,0.00,VWS V14.01,2013-03-01 06:10:00,
2013-03-01 01:15:00,46.2,44.0,29.94,WNW,301,0.0,0.0,92,0.00,,---,0.00,VWS V14.01,2013-03-01 06:15:00,
2013-03-01 01:20:00,46.0,43.8,29.94,WNW,301,0.0,0.0,92,0.00,,---,0.00,VWS V14.01,2013-03-01 06:20:00,
2013-03-01 01:25:00,45.8,43.6,29.94,WNW,301,0.0,0.0,92,0.00,,---,0.00,VWS V14.01,2013-03-01 06:25:00,
2013-03-01 01:30:00,45.7,43.8,29.94,WNW,301,0.0,0.0,93,0.00,,---,0.00,VWS V14.01,2013-03-01 06:30:00,
2013-03-01 01:35:00,45.7,44.1,29.94,WNW,301,0.0,0.0,94,0.00,,---,0.00,VWS V14.01,2013-03-01 06:35:00,
2013-03-01 01:40:00,45.6,44.0,29.94,WNW,301,0.0,0.0,94,0.00,,---,0.00,VWS V14.01,2013-03-01 06:40:00,
2013-03-01 01:45:00,45.5,43.9,29.94,WNW,301,0.0,0.0,94,0.00,,---,0.00,VWS V14.01,2013-03-01 06:45:00,
2013-03-01 01:50:00,45.5,43.9,29.93,WNW,301,0.0,0.0,94,0.00,,---,0.00,VWS V14.01,2013-03-01 06:50:00,
2013-03-01 01:55:00,45.5,44.2,29.93,WNW,301,0.0,0.0,95,0.00,,---,0.00,VWS V14.01,2013-03-01 06:55:00,
2013-03-01 02:00:00,48.5,46.0,29.91,NNW,332,1.0,6.0,91,0.00,,---,0.00,VWS V14.01,2013-03-01 07:00:00,
2013-03-01 02:01:00,45.5,43.9,29.93,WNW,301,0.0,0.0,94,0.00,,---,0.00,VWS V14.01,2013-03-01 07:01:00,
2013-03-01 02:06:00,46.1,45.0,29.93,WNW,301,0.0,2.0,96,0.00,,---,0.00,VWS V14.01,2013-03-01 07:06:00,
2013-03-01 02:11:00,46.7,45.6,29.92,WNW,301,2.0,2.0,96,0.00,,---,0.00,VWS V14.01,2013-03-01 07:11:00,
2013-03-01 02:16:00,47.1,45.7,29.92,WNW,301,0.0,3.0,95,0.00,,---,0.00,VWS V14.01,2013-03-01 07:16:00,
2013-03-01 02:21:00,47.6,46.0,29.92,WNW,301,0.0,3.0,94,0.00,,---,0.00,VWS V14.01,2013-03-01 07:21:00,
2013-03-01 02:26:00,47.9,46.3,29.92,WNW,301,2.0,3.0,94,0.00,,---,0.00,VWS V14.01,2013-03-01 07:26:00,
2013-03-01 02:30:00,48.3,44.9,29.91,NW,319,2.0,7.0,88,0.00,,---,0.00,VWS V14.01,2013-03-01 07:30:00,
2013-03-01 02:31:00,48.2,46.3,29.92,WNW,301,0.0,3.0,93,0.00,,---,0.00,VWS V14.01,2013-03-01 07:31:00,
2013-03-01 02:36:00,48.3,46.1,29.92,WNW,301,0.0,1.0,92,0.00,,---,0.00,VWS V14.01,2013-03-01 07:36:00,
2013-03-01 02:41:00,48.2,46.0,29.92,WNW,301,0.0,1.0,92,0.00,,---,0.00,VWS V14.01,2013-03-01 07:41:00,
2013-03-01 02:46:00,48.1,45.9,29.92,WNW,301,0.0,2.0,92,0.00,,---,0.00,VWS V14.01,2013-03-01 07:46:00,
2013-03-01 02:51:00,47.9,45.7,29.92,WNW,301,1.0,2.0,92,0.00,,---,0.00,VWS V14.01,2013-03-01 07:51:00,
2013-03-01 02:56:00,48.2,46.0,29.91,NNW,340,3.0,6.0,92,0.00,,---,0.00,VWS V14.01,2013-03-01 07:56:00,
2013-03-01 03:00:00,47.4,44.0,29.91,North,355,1.0,5.0,88,0.00,,---,0.00,VWS V14.01,2013-03-01 08:00:00,
2013-03-01 03:01:00,48.5,46.0,29.91,NNW,332,1.0,6.0,91,0.00,,---,0.00,VWS V14.01,2013-03-01 08:01:00,
2013-03-01 03:06:00,48.6,45.8,29.91,NNW,331,1.0,3.0,90,0.00,,---,0.00,VWS V14.01,2013-03-01 08:06:00,
2013-03-01 03:11:00,48.7,45.6,29.91,NNW,331,1.0,7.0,89,0.00,,---,0.00,VWS V14.01,2013-03-01 08:11:00,
2013-03-01 03:16:00,48.7,45.6,29.91,NW,317,1.0,7.0,89,0.00,,---,0.00,VWS V14.01,2013-03-01 08:16:00,
2013-03-01 03:21:00,48.6,45.2,29.92,NW,308,5.0,7.0,88,0.00,,---,0.00,VWS V14.01,2013-03-01 08:21:00,
2013-03-01 03:26:00,48.5,45.1,29.91,NW,319,0.0,7.0,88,0.00,,---,0.00,VWS V14.01,2013-03-01 08:26:00,
2013-03-01 03:30:00,46.3,43.0,29.91,NNW,346,1.0,1.0,88,0.00,,---,0.00,VWS V14.01,2013-03-01 08:30:00,
2013-03-01 03:31:00,48.3,44.9,29.91,NW,316,1.0,7.0,88,0.00,,---,0.00,VWS V14.01,2013-03-01 08:31:00,
2013-03-01 03:32:00,46.2,42.8,29.91,NNW,346,0.0,1.0,88,0.00,,---,0.00,VWS V14.01,2013-03-01 08:32:00,
2013-03-01 03:33:00,46.1,42.8,29.91,NNW,346,1.0,1.0,88,0.00,,---,0.00,VWS V14.01,2013-03-01 08:33:00,
2013-03-01 03:34:00,46.1,42.8,29.91,NNW,346,0.0,2.0,88,0.00,,---,0.00,VWS V14.01,2013-03-01 08:34:00,
2013-03-01 03:35:00,46.1,42.8,29.91,NNW,346,0.0,2.0,88,0.00,,---,0.00,VWS V14.01,2013-03-01 08:35:00,
2013-03-01 03:36:00,48.2,44.8,29.91,NNW,327,0.0,5.0,88,0.00,,---,0.00,VWS V14.01,2013-03-01 08:36:00,
2013-03-01 03:37:00,46.0,42.7,29.91,NW,306,1.0,3.0,88,0.00,,---,0.00,VWS V14.01,2013-03-01 08:37:00,
2013-03-01 03:38:00,46.0,43.0,29.91,NW,309,2.0,3.0,89,0.00,,---,0.00,VWS V14.01,2013-03-01 08:38:00,
2013-03-01 03:39:00,46.0,43.0,29.91,NW,309,0.0,3.0,89,0.00,,---,0.00,VWS V14.01,2013-03-01 08:39:00,
2013-03-01 03:40:00,46.0,43.0,29.91,NW,309,1.0,3.0,89,0.00,,---,0.00,VWS V14.01,2013-03-01 08:40:00,
2013-03-01 03:41:00,48.0,44.6,29.91,North,355,0.0,5.0,88,0.00,,---,0.00,VWS V14.01,2013-03-01 08:41:00,
2013-03-01 03:46:00,47.8,44.4,29.91,NNW,333,2.0,5.0,88,0.00,,---,0.00,VWS V14.01,2013-03-01 08:46:00,
2013-03-01 03:51:00,47.6,44.2,29.91,NNW,327,1.0,5.0,88,0.00,,---,0.00,VWS V14.01,2013-03-01 08:51:00,
2013-03-01 03:56:00,47.5,44.1,29.91,NW,323,3.0,5.0,88,0.00,,---,0.00,VWS V14.01,2013-03-01 08:56:00,
2013-03-01 04:00:00,46.4,43.3,29.92,NW,317,2.0,6.0,89,0.00,,---,0.00,VWS V14.01,2013-03-01 09:00:00,
2013-03-01 04:01:00,47.4,44.0,29.91,North,355,1.0,5.0,88,0.00,,---,0.00,VWS V14.01,2013-03-01 09:01:00,
2013-03-01 04:06:00,47.2,43.8,29.91,NNW,346,2.0,4.0,88,0.00,,---,0.00,VWS V14.01,2013-03-01 09:06:00,
2013-03-01 04:11:00,47.1,43.4,29.90,NNW,346,0.0,4.0,87,0.00,,---,0.00,VWS V14.01,2013-03-01 09:11:00,
2013-03-01 04:16:00,46.8,43.4,29.90,NNW,346,0.0,4.0,88,0.00,,---,0.00,VWS V14.01,2013-03-01 09:16:00,
2013-03-01 04:23:00,46.5,43.1,29.91,NNW,346,1.0,1.0,88,0.00,,---,0.00,VWS V14.01,2013-03-01 09:23:00,
2013-03-01 04:28:00,46.4,43.0,29.91,NNW,346,1.0,2.0,88,0.00,,---,0.00,VWS V14.01,2013-03-01 09:28:00,
2013-03-01 04:30:00,47.3,43.3,29.93,NNW,347,2.0,6.0,86,0.00,,---,0.00,VWS V14.01,2013-03-01 09:30:00,
2013-03-01 04:33:00,46.2,42.8,29.91,NNW,346,0.0,1.0,88,0.00,,---,0.00,VWS V14.01,2013-03-01 09:33:00,
2013-03-01 04:38:00,46.1,42.8,29.91,NW,306,1.0,3.0,88,0.00,,---,0.00,VWS V14.01,2013-03-01 09:38:00,
2013-03-01 04:43:00,46.0,43.0,29.91,NNW,337,2.0,4.0,89,0.00,,---,0.00,VWS V14.01,2013-03-01 09:43:00,
2013-03-01 04:48:00,46.0,43.0,29.91,NNW,335,0.0,4.0,89,0.00,,---,0.00,VWS V14.01,2013-03-01 09:48:00,
2013-03-01 04:53:00,46.0,43.0,29.91,NNW,334,3.0,4.0,89,0.00,,---,0.00,VWS V14.01,2013-03-01 09:53:00,
2013-03-01 04:58:00,46.2,43.1,29.92,NW,321,2.0,6.0,89,0.00,,---,0.00,VWS V14.01,2013-03-01 09:58:00,
2013-03-01 05:00:00,46.9,42.6,29.95,NW,309,1.0,4.0,85,0.00,,---,0.00,VWS V14.01,2013-03-01 10:00:00,
2013-03-01 05:03:00,46.5,43.4,29.92,NNW,334,5.0,5.0,89,0.00,,---,0.00,VWS V14.01,2013-03-01 10:03:00,
2013-03-01 05:08:00,46.9,43.2,29.92,NNW,331,3.0,5.0,87,0.00,,---,0.00,VWS V14.01,2013-03-01 10:08:00,
2013-03-01 05:14:00,47.1,43.4,29.93,NW,326,5.0,6.0,87,0.00,,---,0.00,VWS V14.01,2013-03-01 10:14:00,
2013-03-01 05:19:00,47.2,43.5,29.93,NNW,328,1.0,6.0,87,0.00,,---,0.00,VWS V14.01,2013-03-01 10:19:00,
2013-03-01 05:23:00,47.3,43.3,29.93,NW,319,4.0,6.0,86,0.00,,---,0.00,VWS V14.01,2013-03-01 10:23:00,
2013-03-01 05:28:00,47.3,43.3,29.93,NNW,329,2.0,6.0,86,0.00,,---,0.00,VWS V14.01,2013-03-01 10:28:00,
2013-03-01 05:30:00,46.3,42.0,29.95,NW,309,0.0,1.0,85,0.00,,---,0.00,VWS V14.01,2013-03-01 10:30:00,
2013-03-01 05:31:00,46.3,42.0,29.95,NW,309,0.0,0.0,85,0.00,,---,0.00,VWS V14.01,2013-03-01 10:31:00,
2013-03-01 05:32:00,46.2,42.0,29.95,NW,309,0.0,1.0,85,0.00,,---,0.00,VWS V14.01,2013-03-01 10:32:00,
2013-03-01 05:33:00,47.2,43.2,29.93,NNW,334,2.0,4.0,86,0.00,,---,0.00,VWS V14.01,2013-03-01 10:33:00,
2013-03-01 05:34:00,46.1,42.2,29.95,NW,309,0.0,1.0,86,0.00,,---,0.00,VWS V14.01,2013-03-01 10:34:00,
2013-03-01 05:35:00,46.1,42.2,29.96,NW,309,0.0,1.0,86,0.00,,---,0.00,VWS V14.01,2013-03-01 10:35:00,
2013-03-01 05:36:00,46.0,42.0,29.95,NW,309,0.0,1.0,86,0.00,,---,0.00,VWS V14.01,2013-03-01 10:36:00,
2013-03-01 05:37:00,46.0,42.0,29.95,NW,309,0.0,1.0,86,0.00,,---,0.00,VWS V14.01,2013-03-01 10:37:00,
2013-03-01 05:38:00,45.9,42.0,29.95,NW,309,0.0,1.0,86,0.00,,---,0.00,VWS V14.01,2013-03-01 10:38:00,
2013-03-01 05:39:00,47.0,43.0,29.94,NNW,334,2.0,4.0,86,0.00,,---,0.00,VWS V14.01,2013-03-01 10:39:00,
2013-03-01 05:44:00,47.0,42.7,29.94,NW,315,2.0,4.0,85,0.00,,---,0.00,VWS V14.01,2013-03-01 10:44:00,
2013-03-01 05:49:00,46.9,42.6,29.94,NW,309,1.0,4.0,85,0.00,,---,0.00,VWS V14.01,2013-03-01 10:49:00,
2013-03-01 05:54:00,46.9,42.6,29.94,NW,309,0.0,4.0,85,0.00,,---,0.00,VWS V14.01,2013-03-01 10:54:00,
2013-03-01 05:59:00,46.9,42.6,29.95,NW,309,1.0,4.0,85,0.00,,---,0.00,VWS V14.01,2013-03-01 10:59:00,
2013-03-01 06:00:00,44.7,41.1,29.95,NW,309,0.0,1.0,87,0.00,,---,0.00,VWS V14.01,2013-03-01 11:00:00,
2013-03-01 06:04:00,46.9,42.6,29.94,NW,309,0.0,1.0,85,0.00,,---,0.00,VWS V14.01,2013-03-01 11:04:00,
2013-03-01 06:09:00,46.8,42.5,29.94,NW,309,0.0,2.0,85,0.00,,---,0.00,VWS V14.01,2013-03-01 11:09:00,
2013-03-01 06:14:00,46.7,42.4,29.94,NW,309,0.0,2.0,85,0.00,,---,0.00,VWS V14.01,2013-03-01 11:14:00,
2013-03-01 06:19:00,46.6,42.3,29.95,NW,309,0.0,2.0,85,0.00,,---,0.00,VWS V14.01,2013-03-01 11:19:00,
2013-03-01 06:28:00,46.4,42.1,29.95,NW,309,0.0,0.0,85,0.00,,---,0.00,VWS V14.01,2013-03-01 11:28:00,
2013-03-01 06:30:00,43.6,41.4,29.96,NW,309,0.0,1.0,92,0.00,,---,0.00,VWS V14.01,2013-03-01 11:30:00,
2013-03-01 06:40:00,45.9,42.0,29.95,NW,309,0.0,1.0,86,0.00,,---,0.00,VWS V14.01,2013-03-01 11:40:00,
2013-03-01 06:45:00,45.7,41.8,29.95,NW,309,0.0,1.0,86,0.00,,---,0.00,VWS V14.01,2013-03-01 11:45:00,
2013-03-01 06:50:00,45.4,41.5,29.95,NW,309,0.0,1.0,86,0.00,,---,0.00,VWS V14.01,2013-03-01 11:50:00,
2013-03-01 06:55:00,45.2,41.3,29.95,NW,309,0.0,1.0,86,0.00,,---,0.00,VWS V14.01,2013-03-01 11:55:00,
2013-03-01 07:00:00,44.8,41.2,29.95,NW,309,0.0,1.0,87,0.00,,---,0.00,VWS V14.01,2013-03-01 12:00:00,
2013-03-01 07:05:00,44.3,40.7,29.95,NW,309,0.0,0.0,87,0.00,,---,0.00,VWS V14.01,2013-03-01 12:05:00,
2013-03-01 07:10:00,43.8,40.5,29.95,NW,309,0.0,0.0,88,0.00,,---,0.00,VWS V14.01,2013-03-01 12:10:00,
2013-03-01 07:15:00,43.5,40.5,29.96,NW,309,0.0,0.0,89,0.00,,---,0.00,VWS V14.01,2013-03-01 12:15:00,
2013-03-01 07:20:00,43.2,40.2,29.95,NW,309,0.0,0.0,89,0.00,,---,0.00,VWS V14.01,2013-03-01 12:20:00,
2013-03-01 07:25:00,43.3,40.6,29.95,NW,309,0.0,0.0,90,0.00,,---,0.00,VWS V14.01,2013-03-01 12:25:00,
2013-03-01 07:30:00,43.5,41.0,29.96,NW,309,0.0,0.0,91,0.00,,---,0.00,VWS V14.01,2013-03-01 12:30:00,
2013-03-01 07:35:00,44.1,41.9,29.97,NW,309,0.0,1.0,92,0.00,,---,0.00,VWS V14.01,2013-03-01 12:35:00,
2013-03-01 07:40:00,44.6,42.4,29.97,NW,309,0.0,1.0,92,0.00,,---,0.00,VWS V14.01,2013-03-01 12:40:00,
2013-03-01 07:45:00,45.2,42.5,29.97,NW,309,0.0,1.0,90,0.00,,---,0.00,VWS V14.01,2013-03-01 12:45:00,
2013-03-01 07:50:00,45.7,42.7,29.97,NW,309,0.0,1.0,89,0.00,,---,0.00,VWS V14.01,2013-03-01 12:50:00,
2013-03-01 07:55:00,46.5,43.1,29.98,NW,309,1.0,2.0,88,0.00,,---,0.00,VWS V14.01,2013-03-01 12:55:00,
2013-03-01 08:00:00,47.3,42.7,29.97,NW,309,0.0,2.0,84,0.00,,---,0.00,VWS V14.01,2013-03-01 13:00:00,
2013-03-01 08:05:00,48.2,43.0,29.98,NW,309,2.0,3.0,82,0.00,,---,0.00,VWS V14.01,2013-03-01 13:05:00,
2013-03-01 08:10:00,49.1,42.9,29.98,NW,309,2.0,4.0,79,0.00,,---,0.00,VWS V14.01,2013-03-01 13:10:00,
2013-03-01 08:15:00,49.7,42.5,29.98,WNW,297,0.0,6.0,76,0.00,,---,0.00,VWS V14.01,2013-03-01 13:15:00,
2013-03-01 08:20:00,50.2,42.9,29.99,WNW,298,7.0,7.0,76,0.00,,---,0.00,VWS V14.01,2013-03-01 13:20:00,
2013-03-01 08:25:00,50.7,42.7,29.99,NW,309,3.0,7.0,74,0.00,,---,0.00,VWS V14.01,2013-03-01 13:25:00,
2013-03-01 08:30:00,51.3,43.3,30.00,WNW,282,4.0,7.0,74,0.00,,---,0.00,VWS V14.01,2013-03-01 13:30:00,
2013-03-01 08:36:00,51.5,42.8,30.00,WNW,302,6.0,7.0,72,0.00,,---,0.00,VWS V14.01,2013-03-01 13:36:00,
2013-03-01 08:41:00,51.5,42.4,30.00,North,355,3.0,7.0,71,0.00,,---,0.00,VWS V14.01,2013-03-01 13:41:00,
2013-03-01 08:46:00,51.7,42.6,30.00,NNW,348,4.0,7.0,71,0.00,,---,0.00,VWS V14.01,2013-03-01 13:46:00,
2013-03-01 08:51:00,51.9,42.4,30.00,NW,312,2.0,7.0,70,0.00,,---,0.00,VWS V14.01,2013-03-01 13:51:00,
2013-03-01 08:56:00,52.2,41.6,29.99,NW,321,3.0,7.0,67,0.00,,---,0.00,VWS V14.01,2013-03-01 13:56:00,
2013-03-01 09:00:00,54.8,41.2,29.99,NE,46,4.0,8.0,60,0.00,,---,0.00,VWS V14.01,2013-03-01 14:00:00,
2013-03-01 09:01:00,52.5,41.5,30.00,NNW,338,2.0,7.0,66,0.00,,---,0.00,VWS V14.01,2013-03-01 14:01:00,
2013-03-01 09:06:00,52.7,40.9,30.00,WNW,296,3.0,5.0,64,0.00,,---,0.00,VWS V14.01,2013-03-01 14:06:00,
2013-03-01 09:11:00,53.0,41.6,30.00,NW,319,1.0,5.0,65,0.00,,---,0.00,VWS V14.01,2013-03-01 14:11:00,
2013-03-01 09:16:00,53.3,40.6,29.99,NW,323,3.0,6.0,62,0.00,,---,0.00,VWS V14.01,2013-03-01 14:16:00,
2013-03-01 09:21:00,53.9,42.0,29.99,North,355,4.0,6.0,64,0.00,,---,0.00,VWS V14.01,2013-03-01 14:21:00,
2013-03-01 09:26:00,54.2,41.5,29.99,NW,326,3.0,8.0,62,0.00,,---,0.00,VWS V14.01,2013-03-01 14:26:00,
2013-03-01 09:30:00,57.4,38.9,29.98,NW,313,2.0,7.0,50,0.00,,---,0.00,VWS V14.01,2013-03-01 14:30:00,
2013-03-01 09:31:00,54.1,40.1,29.99,WNW,294,8.0,9.0,59,0.00,,---,0.00,VWS V14.01,2013-03-01 14:31:00,
2013-03-01 09:36:00,53.9,40.3,29.99,NNW,336,3.0,8.0,60,0.00,,---,0.00,VWS V14.01,2013-03-01 14:36:00,
2013-03-01 09:41:00,53.8,39.8,29.99,North,10,2.0,8.0,59,0.00,,---,0.00,VWS V14.01,2013-03-01 14:41:00,
2013-03-01 09:47:00,53.7,40.2,29.99,North,10,3.0,8.0,60,0.00,,---,0.00,VWS V14.01,2013-03-01 14:47:00,
2013-03-01 09:52:00,53.7,40.6,29.99,NNW,336,5.0,8.0,61,0.00,,---,0.00,VWS V14.01,2013-03-01 14:52:00,
2013-03-01 09:57:00,54.2,40.6,29.99,NNW,344,0.0,8.0,60,0.00,,---,0.00,VWS V14.01,2013-03-01 14:57:00,
2013-03-01 10:00:00,57.9,38.3,29.98,WNW,290,3.0,10.0,48,0.00,,---,0.00,VWS V14.01,2013-03-01 15:00:00,
2013-03-01 10:02:00,54.9,41.3,29.99,NNE,17,5.0,5.0,60,0.00,,---,0.00,VWS V14.01,2013-03-01 15:02:00,
2013-03-01 10:07:00,55.5,41.4,29.99,NNW,327,4.0,5.0,59,0.00,,---,0.00,VWS V14.01,2013-03-01 15:07:00,
2013-03-01 10:12:00,56.2,40.7,29.99,NE,41,1.0,7.0,56,0.00,,---,0.00,VWS V14.01,2013-03-01 15:12:00,
2013-03-01 10:17:00,56.7,41.2,29.99,NW,317,4.0,7.0,56,0.00,,---,0.00,VWS V14.01,2013-03-01 15:17:00,
2013-03-01 10:22:00,57.3,40.3,29.98,NNE,15,7.0,7.0,53,0.00,,---,0.00,VWS V14.01,2013-03-01 15:22:00,
2013-03-01 10:27:00,57.6,39.6,29.98,NW,316,5.0,7.0,51,0.00,,---,0.00,VWS V14.01,2013-03-01 15:27:00,
2013-03-01 10:30:00,58.2,38.6,29.98,NW,306,2.0,9.0,48,0.00,,---,0.00,VWS V14.01,2013-03-01 15:30:00,
2013-03-01 10:32:00,57.4,38.9,29.98,NNE,18,4.0,5.0,50,0.00,,---,0.00,VWS V14.01,2013-03-01 15:32:00,
2013-03-01 10:37:00,57.3,39.3,29.98,NW,323,6.0,10.0,51,0.00,,---,0.00,VWS V14.01,2013-03-01 15:37:00,
2013-03-01 10:42:00,57.3,39.3,29.98,ENE,63,1.0,10.0,51,0.00,,---,0.00,VWS V14.01,2013-03-01 15:42:00,
2013-03-01 10:49:00,57.7,39.7,29.98,ENE,63,4.0,10.0,51,0.00,,---,0.00,VWS V14.01,2013-03-01 15:49:00,
2013-03-01 10:54:00,58.1,40.6,29.98,WNW,296,2.0,10.0,52,0.00,,---,0.00,VWS V14.01,2013-03-01 15:54:00,
2013-03-01 10:59:00,58.3,39.2,29.98,West,264,3.0,10.0,49,0.00,,---,0.00,VWS V14.01,2013-03-01 15:59:00,
2013-03-01 11:00:00,62.0,38.0,29.94,WNW,282,4.0,13.0,41,0.00,,---,0.00,VWS V14.01,2013-03-01 16:00:00,
2013-03-01 11:05:00,57.3,38.3,29.99,WNW,294,4.0,9.0,49,0.00,,---,0.00,VWS V14.01,2013-03-01 16:05:00,
2013-03-01 11:10:00,56.9,38.5,29.99,WNW,294,3.0,9.0,50,0.00,,---,0.00,VWS V14.01,2013-03-01 16:10:00,
2013-03-01 11:15:00,57.2,39.8,29.99,WNW,296,4.0,9.0,52,0.00,,---,0.00,VWS V14.01,2013-03-01 16:15:00,
2013-03-01 11:20:00,58.0,40.0,29.99,West,277,7.0,9.0,51,0.00,,---,0.00,VWS V14.01,2013-03-01 16:20:00,
2013-03-01 11:25:00,58.0,40.0,29.99,NW,304,3.0,9.0,51,0.00,,---,0.00,VWS V14.01,2013-03-01 16:25:00,
2013-03-01 11:30:00,58.3,38.2,29.98,WNW,300,4.0,9.0,47,0.00,,---,0.00,VWS V14.01,2013-03-01 16:30:00,
2013-03-01 11:31:00,60.9,39.4,29.96,West,277,3.0,9.0,45,0.00,,---,0.00,VWS V14.01,2013-03-01 16:31:00,
2013-03-01 11:32:00,60.9,39.4,29.96,West,277,5.0,9.0,45,0.00,,---,0.00,VWS V14.01,2013-03-01 16:32:00,
2013-03-01 11:33:00,61.0,39.0,29.95,WNW,296,7.0,9.0,44,0.00,,---,0.00,VWS V14.01,2013-03-01 16:33:00,
2013-03-01 11:34:00,61.0,39.0,29.95,WNW,287,6.0,9.0,44,0.00,,---,0.00,VWS V14.01,2013-03-01 16:34:00,
2013-03-01 11:35:00,58.2,39.2,29.98,NNW,340,4.0,9.0,49,0.00,,---,0.00,VWS V14.01,2013-03-01 16:35:00,
2013-03-01 11:36:00,61.2,39.1,29.95,WNW,290,8.0,9.0,44,0.00,,---,0.00,VWS V14.01,2013-03-01 16:36:00,
2013-03-01 11:37:00,61.3,38.6,29.95,West,262,3.0,9.0,43,0.00,,---,0.00,VWS V14.01,2013-03-01 16:37:00,
2013-03-01 11:38:00,61.1,38.5,29.95,West,262,2.0,9.0,43,0.00,,---,0.00,VWS V14.01,2013-03-01 16:38:00,
2013-03-01 11:39:00,61.0,37.8,29.95,West,277,5.0,9.0,42,0.00,,---,0.00,VWS V14.01,2013-03-01 16:39:00,
2013-03-01 11:40:00,58.6,38.5,29.98,WNW,288,6.0,11.0,47,0.00,,---,0.00,VWS V14.01,2013-03-01 16:40:00,
2013-03-01 11:45:00,58.7,37.4,29.98,WNW,289,6.0,11.0,45,0.00,,---,0.00,VWS V14.01,2013-03-01 16:45:00,
2013-03-01 11:50:00,59.1,37.2,29.98,WNW,298,9.0,12.0,44,0.00,,---,0.00,VWS V14.01,2013-03-01 16:50:00,
2013-03-01 11:55:00,59.6,37.7,29.98,NW,306,2.0,12.0,44,0.00,,---,0.00,VWS V14.01,2013-03-01 16:55:00,
2013-03-01 12:00:00,62.0,38.0,29.94,WNW,282,4.0,13.0,41,0.00,,---,0.00,VWS V14.01,2013-03-01 17:00:00,
2013-03-01 12:03:00,59.7,37.8,29.97,WNW,300,4.0,4.0,44,0.00,,---,0.00,VWS V14.01,2013-03-01 17:03:00,
2013-03-01 12:08:00,60.0,38.6,29.97,North,355,4.0,14.0,45,0.00,,---,0.00,VWS V14.01,2013-03-01 17:08:00,
2013-03-01 12:13:00,60.5,39.1,29.97,NW,318,7.0,14.0,45,0.00,,---,0.00,VWS V14.01,2013-03-01 17:13:00,
2013-03-01 12:18:00,60.9,40.0,29.97,NNW,329,1.0,14.0,46,0.00,,---,0.00,VWS V14.01,2013-03-01 17:18:00,
2013-03-01 12:23:00,61.2,39.7,29.96,WNW,290,12.0,14.0,45,0.00,,---,0.00,VWS V14.01,2013-03-01 17:23:00,
2013-03-01 12:28:00,60.7,39.3,29.96,WNW,285,7.0,14.0,45,0.00,,---,0.00,VWS V14.01,2013-03-01 17:28:00,
2013-03-01 12:30:00,63.6,38.9,29.92,WNW,291,9.0,13.0,40,0.00,,---,0.00,VWS V14.01,2013-03-01 17:30:00,
2013-03-01 12:39:00,61.2,38.5,29.95,West,262,3.0,9.0,43,0.00,,---,0.00,VWS V14.01,2013-03-01 17:39:00,
2013-03-01 12:44:00,61.2,39.7,29.95,WNW,290,3.0,9.0,45,0.00,,---,0.00,VWS V14.01,2013-03-01 17:44:00,
2013-03-01 12:49:00,62.0,39.3,29.94,WNW,283,8.0,10.0,43,0.00,,---,0.00,VWS V14.01,2013-03-01 17:49:00,
2013-03-01 12:54:00,62.5,37.2,29.94,NW,311,7.0,13.0,39,0.00,,---,0.00,VWS V14.01,2013-03-01 17:54:00,
2013-03-01 12:59:00,62.0,38.0,29.94,WSW,254,8.0,13.0,41,0.00,,---,0.00,VWS V14.01,2013-03-01 17:59:00,
2013-03-01 13:00:00,64.2,37.4,29.89,NW,311,4.0,13.0,37,0.00,,---,0.00,VWS V14.01,2013-03-01 18:00:00,
2013-03-01 13:04:00,62.1,38.1,29.93,WNW,284,7.0,7.0,41,0.00,,---,0.00,VWS V14.01,2013-03-01 18:04:00,
2013-03-01 13:09:00,62.7,38.7,29.93,NW,321,6.0,13.0,41,0.00,,---,0.00,VWS V14.01,2013-03-01 18:09:00,
2013-03-01 13:14:00,63.4,38.0,29.93,NNW,331,2.0,13.0,39,0.00,,---,0.00,VWS V14.01,2013-03-01 18:14:00,
2013-03-01 13:19:00,63.4,36.7,29.93,West,279,3.0,13.0,37,0.00,,---,0.00,VWS V14.01,2013-03-01 18:19:00,
2013-03-01 13:24:00,62.9,37.6,29.92,NW,313,4.0,13.0,39,0.00,,---,0.00,VWS V14.01,2013-03-01 18:24:00,
2013-03-01 13:29:00,63.4,38.7,29.92,NNW,331,7.0,13.0,40,0.00,,---,0.00,VWS V14.01,2013-03-01 18:29:00,
2013-03-01 13:30:00,65.4,37.1,29.89,NW,316,5.0,13.0,35,0.00,,---,0.00,VWS V14.01,2013-03-01 18:30:00,
2013-03-01 13:34:00,64.0,37.9,29.92,WNW,284,7.0,9.0,38,0.00,,---,0.00,VWS V14.01,2013-03-01 18:34:00,
2013-03-01 13:39:00,64.1,38.0,29.91,WNW,288,7.0,9.0,38,0.00,,---,0.00,VWS V14.01,2013-03-01 18:39:00,
2013-03-01 13:45:00,63.9,38.5,29.90,WSW,238,6.0,10.0,39,0.00,,---,0.00,VWS V14.01,2013-03-01 18:45:00,
2013-03-01 13:50:00,64.0,37.2,29.90,NNE,12,7.0,13.0,37,0.00,,---,0.00,VWS V14.01,2013-03-01 18:50:00,
2013-03-01 13:55:00,64.1,37.3,29.89,West,263,1.0,13.0,37,0.00,,---,0.00,VWS V14.01,2013-03-01 18:55:00,
2013-03-01 14:00:00,64.0,37.2,29.89,North,355,1.0,13.0,37,0.00,,---,0.00,VWS V14.01,2013-03-01 19:00:00,
2013-03-01 14:05:00,64.6,37.8,29.89,WNW,288,5.0,9.0,37,0.00,,---,0.00,VWS V14.01,2013-03-01 19:05:00,
2013-03-01 14:10:00,64.9,36.6,29.89,WNW,303,8.0,11.0,35,0.00,,---,0.00,VWS V14.01,2013-03-01 19:10:00,
2013-03-01 14:15:00,64.9,36.6,29.89,WNW,284,5.0,11.0,35,0.00,,---,0.00,VWS V14.01,2013-03-01 19:15:00,
2013-03-01 14:20:00,65.0,37.4,29.89,NW,306,8.0,13.0,36,0.00,,---,0.00,VWS V14.01,2013-03-01 19:20:00,
2013-03-01 14:25:00,64.8,37.2,29.89,North,355,3.0,13.0,36,0.00,,---,0.00,VWS V14.01,2013-03-01 19:25:00,
2013-03-01 14:30:00,65.1,36.8,29.89,WNW,302,4.0,13.0,35,0.00,,---,0.00,VWS V14.01,2013-03-01 19:30:00,
2013-03-01 14:35:00,65.7,37.3,29.89,NNW,328,8.0,14.0,35,0.00,,---,0.00,VWS V14.01,2013-03-01 19:35:00,
2013-03-01 14:40:00,65.6,35.8,29.89,NW,318,4.0,14.0,33,0.00,,---,0.00,VWS V14.01,2013-03-01 19:40:00,
2013-03-01 14:45:00,65.6,38.0,29.89,NNW,330,3.0,14.0,36,0.00,,---,0.00,VWS V14.01,2013-03-01 19:45:00,
2013-03-01 14:50:00,66.1,36.2,29.89,West,280,11.0,14.0,33,0.00,,---,0.00,VWS V14.01,2013-03-01 19:50:00,
2013-03-01 14:55:00,65.4,35.6,29.89,West,278,4.0,14.0,33,0.00,,---,0.00,VWS V14.01,2013-03-01 19:55:00,
2013-03-01 15:00:00,65.5,36.4,29.89,WNW,288,6.0,14.0,34,0.00,,---,0.00,VWS V14.01,2013-03-01 20:00:00,
2013-03-01 15:05:00,65.7,35.8,29.89,WNW,285,5.0,10.0,33,0.00,,---,0.00,VWS V14.01,2013-03-01 20:05:00,
2013-03-01 15:10:00,65.9,36.0,29.89,WNW,301,6.0,10.0,33,0.00,,---,0.00,VWS V14.01,2013-03-01 20:10:00,
2013-03-01 15:15:00,65.8,35.9,29.89,NW,314,9.0,12.0,33,0.00,,---,0.00,VWS V14.01,2013-03-01 20:15:00,
2013-03-01 15:20:00,65.3,35.5,29.89,NNW,327,4.0,12.0,33,0.00,,---,0.00,VWS V14.01,2013-03-01 20:20:00,
2013-03-01 15:25:00,65.6,35.0,29.90,West,263,9.0,12.0,32,0.00,,---,0.00,VWS V14.01,2013-03-01 20:25:00,
2013-03-01 15:30:00,65.8,35.2,29.90,WNW,299,5.0,12.0,32,0.00,,---,0.00,VWS V14.01,2013-03-01 20:30:00,
2013-03-01 15:31:00,60.0,36.2,29.91,West,261,15.0,15.0,41,0.00,,---,0.00,VWS V14.01,2013-03-01 20:31:00,
2013-03-01 15:32:00,60.0,36.2,29.91,WNW,288,12.0,15.0,41,0.00,,---,0.00,VWS V14.01,2013-03-01 20:32:00,
2013-03-01 15:33:00,59.9,36.2,29.91,WNW,292,5.0,15.0,41,0.00,,---,0.00,VWS V14.01,2013-03-01 20:33:00,
2013-03-01 15:34:00,59.9,36.2,29.91,West,273,8.0,15.0,41,0.00,,---,0.00,VWS V14.01,2013-03-01 20:34:00,
2013-03-01 15:35:00,65.2,34.6,29.89,NW,313,5.0,11.0,32,0.00,,---,0.00,VWS V14.01,2013-03-01 20:35:00,
2013-03-01 15:36:00,59.8,36.1,29.91,WNW,299,12.0,15.0,41,0.00,,---,0.00,VWS V14.01,2013-03-01 20:36:00,
2013-03-01 15:37:00,59.7,36.0,29.91,West,271,6.0,15.0,41,0.00,,---,0.00,VWS V14.01,2013-03-01 20:37:00,
2013-03-01 15:38:00,59.6,36.5,29.91,West,266,6.0,15.0,42,0.00,,---,0.00,VWS V14.01,2013-03-01 20:38:00,
2013-03-01 15:39:00,59.6,36.5,29.91,West,265,9.0,15.0,42,0.00,,---,0.00,VWS V14.01,2013-03-01 20:39:00,
2013-03-01 15:40:00,64.8,35.8,29.90,WNW,286,5.0,11.0,34,0.00,,---,0.00,VWS V14.01,2013-03-01 20:40:00,
2013-03-01 15:41:00,59.6,37.1,29.91,West,271,9.0,15.0,43,0.00,,---,0.00,VWS V14.01,2013-03-01 20:41:00,
2013-03-01 15:45:00,64.2,35.3,29.90,NW,307,4.0,15.0,34,0.00,,---,0.00,VWS V14.01,2013-03-01 20:45:00,
2013-03-01 15:51:00,63.6,35.5,29.90,WNW,284,6.0,15.0,35,0.00,,---,0.00,VWS V14.01,2013-03-01 20:51:00,
2013-03-01 15:56:00,62.9,35.6,29.90,WNW,284,8.0,15.0,36,0.00,,---,0.00,VWS V14.01,2013-03-01 20:56:00,
2013-03-01 16:00:00,59.2,38.5,29.91,West,259,4.0,15.0,46,0.00,,---,0.00,VWS V14.01,2013-03-01 21:00:00,
2013-03-01 16:01:00,62.0,34.8,29.91,West,273,10.0,15.0,36,0.00,,---,0.00,VWS V14.01,2013-03-01 21:01:00,
2013-03-01 16:06:00,61.6,35.1,29.91,West,263,6.0,13.0,37,0.00,,---,0.00,VWS V14.01,2013-03-01 21:06:00,
2013-03-01 16:11:00,61.2,35.4,29.91,West,274,11.0,13.0,38,0.00,,---,0.00,VWS V14.01,2013-03-01 21:11:00,
2013-03-01 16:16:00,60.8,35.7,29.91,West,281,16.0,16.0,39,0.00,,---,0.00,VWS V14.01,2013-03-01 21:16:00,
2013-03-01 16:21:00,60.5,36.1,29.91,WNW,291,13.0,16.0,40,0.00,,---,0.00,VWS V14.01,2013-03-01 21:21:00,
2013-03-01 16:27:00,60.1,35.7,29.91,West,276,12.0,12.0,40,0.00,,---,0.00,VWS V14.01,2013-03-01 21:27:00,
2013-03-01 16:30:00,55.6,39.7,29.94,WNW,284,4.0,15.0,55,0.00,,---,0.00,VWS V14.01,2013-03-01 21:30:00,
2013-03-01 16:39:00,59.7,36.0,29.91,West,273,7.0,15.0,41,0.00,,---,0.00,VWS V14.01,2013-03-01 21:39:00,
2013-03-01 16:44:00,59.5,37.0,29.91,West,265,11.0,15.0,43,0.00,,---,0.00,VWS V14.01,2013-03-01 21:44:00,
2013-03-01 16:49:00,59.3,37.4,29.91,WNW,285,6.0,15.0,44,0.00,,---,0.00,VWS V14.01,2013-03-01 21:49:00,
2013-03-01 16:54:00,59.3,38.0,29.91,West,263,4.0,15.0,45,0.00,,---,0.00,VWS V14.01,2013-03-01 21:54:00,
2013-03-01 16:59:00,59.2,37.9,29.91,West,279,7.0,15.0,45,0.00,,---,0.00,VWS V14.01,2013-03-01 21:59:00,
2013-03-01 17:00:00,56.8,39.4,29.92,West,277,8.0,13.0,52,0.00,,---,0.00,VWS V14.01,2013-03-01 22:00:00,
2013-03-01 17:01:00,56.8,38.9,29.92,WNW,302,5.0,8.0,51,0.00,,---,0.00,VWS V14.01,2013-03-01 22:01:00,
2013-03-01 17:02:00,56.7,38.8,29.92,West,281,8.0,8.0,51,0.00,,---,0.00,VWS V14.01,2013-03-01 22:02:00,
2013-03-01 17:03:00,56.7,38.8,29.92,WNW,288,10.0,10.0,51,0.00,,---,0.00,VWS V14.01,2013-03-01 22:03:00,
2013-03-01 17:04:00,59.0,38.3,29.91,West,273,7.0,11.0,46,0.00,,---,0.00,VWS V14.01,2013-03-01 22:04:00,
2013-03-01 17:05:00,56.7,39.3,29.93,WNW,288,4.0,10.0,52,0.00,,---,0.00,VWS V14.01,2013-03-01 22:05:00,
2013-03-01 17:06:00,56.6,39.2,29.93,WNW,299,2.0,10.0,52,0.00,,---,0.00,VWS V14.01,2013-03-01 22:06:00,
2013-03-01 17:07:00,56.6,39.2,29.93,WNW,298,8.0,10.0,52,0.00,,---,0.00,VWS V14.01,2013-03-01 22:07:00,
2013-03-01 17:08:00,56.5,39.1,29.92,West,279,7.0,10.0,52,0.00,,---,0.00,VWS V14.01,2013-03-01 22:08:00,
2013-03-01 17:09:00,58.7,38.5,29.91,WNW,290,9.0,13.0,47,0.00,,---,0.00,VWS V14.01,2013-03-01 22:09:00,
2013-03-01 17:14:00,58.5,38.9,29.91,WNW,299,6.0,13.0,48,0.00,,---,0.00,VWS V14.01,2013-03-01 22:14:00,
2013-03-01 17:19:00,58.2,39.2,29.92,West,274,11.0,13.0,49,0.00,,---,0.00,VWS V14.01,2013-03-01 22:19:00,
2013-03-01 17:24:00,58.0,39.5,29.91,West,266,6.0,13.0,50,0.00,,---,0.00,VWS V14.01,2013-03-01 22:24:00,
2013-03-01 17:29:00,57.9,39.4,29.92,West,274,8.0,13.0,50,0.00,,---,0.00,VWS V14.01,2013-03-01 22:29:00,
2013-03-01 17:30:00,55.6,39.7,29.94,WNW,284,4.0,15.0,55,0.00,,---,0.00,VWS V14.01,2013-03-01 22:30:00,
2013-03-01 17:35:00,57.6,39.6,29.92,West,279,6.0,6.0,51,0.00,,---,0.00,VWS V14.01,2013-03-01 22:35:00,
2013-03-01 17:40:00,57.5,39.5,29.92,WNW,298,6.0,11.0,51,0.00,,---,0.00,VWS V14.01,2013-03-01 22:40:00,
2013-03-01 17:45:00,57.2,39.2,29.92,West,281,6.0,13.0,51,0.00,,---,0.00,VWS V14.01,2013-03-01 22:45:00,
2013-03-01 17:50:00,57.0,39.1,29.92,West,259,11.0,13.0,51,0.00,,---,0.00,VWS V14.01,2013-03-01 22:50:00,
2013-03-01 17:55:00,56.8,38.9,29.92,West,273,6.0,13.0,51,0.00,,---,0.00,VWS V14.01,2013-03-01 22:55:00,
2013-03-01 18:00:00,56.8,39.4,29.92,West,280,5.0,13.0,52,0.00,,---,0.00,VWS V14.01,2013-03-01 23:00:00,
2013-03-01 18:10:00,56.5,39.1,29.92,West,279,3.0,10.0,52,0.00,,---,0.00,VWS V14.01,2013-03-01 23:10:00,
2013-03-01 18:15:00,56.3,39.9,29.92,WNW,282,8.0,10.0,54,0.00,,---,0.00,VWS V14.01,2013-03-01 23:15:00,
2013-03-01 18:20:00,56.1,40.2,29.93,WNW,293,7.0,13.0,55,0.00,,---,0.00,VWS V14.01,2013-03-01 23:20:00,
2013-03-01 18:25:00,55.8,39.9,29.93,West,278,8.0,15.0,55,0.00,,---,0.00,VWS V14.01,2013-03-01 23:25:00,
2013-03-01 18:30:00,55.7,39.8,29.93,West,274,10.0,15.0,55,0.00,,---,0.00,VWS V14.01,2013-03-01 23:30:00,
2013-03-01 18:35:00,55.5,40.1,29.94,WNW,290,12.0,14.0,56,0.00,,---,0.00,VWS V14.01,2013-03-01 23:35:00,
2013-03-01 18:40:00,55.5,40.1,29.94,WNW,283,5.0,14.0,56,0.00,,---,0.00,VWS V14.01,2013-03-01 23:40:00,
2013-03-01 18:45:00,55.2,39.8,29.95,WNW,284,10.0,14.0,56,0.00,,---,0.00,VWS V14.01,2013-03-01 23:45:00,
2013-03-01 18:50:00,55.1,40.2,29.95,WNW,284,4.0,14.0,57,0.00,,---,0.00,VWS V14.01,2013-03-01 23:50:00,
2013-03-01 18:55:00,55.0,40.1,29.95,West,277,7.0,14.0,57,0.00,,---,0.00,VWS V14.01,2013-03-01 23:55:00,
2013-03-01 19:00:00,54.9,40.4,29.95,NW,312,10.0,14.0,58,0.00,,---,0.00,VWS V14.01,2013-03-02 00:00:00,
2013-03-01 19:05:00,54.7,40.7,29.95,WNW,291,5.0,12.0,59,0.00,,---,0.00,VWS V14.01,2013-03-02 00:05:00,
2013-03-01 19:10:00,54.5,40.9,29.95,West,278,8.0,12.0,60,0.00,,---,0.00,VWS V14.01,2013-03-02 00:10:00,
2013-03-01 19:15:00,54.4,40.8,29.95,West,277,6.0,12.0,60,0.00,,---,0.00,VWS V14.01,2013-03-02 00:15:00,
2013-03-01 19:20:00,54.3,41.2,29.95,West,260,9.0,12.0,61,0.00,,---,0.00,VWS V14.01,2013-03-02 00:20:00,
2013-03-01 19:25:00,54.2,41.5,29.95,West,277,5.0,12.0,62,0.00,,---,0.00,VWS V14.01,2013-03-02 00:25:00,
2013-03-01 19:30:00,54.1,41.4,29.96,WNW,285,9.0,12.0,62,0.00,,---,0.00,VWS V14.01,2013-03-02 00:30:00,
2013-03-01 19:35:00,54.0,41.7,29.96,WNW,302,6.0,12.0,63,0.00,,---,0.00,VWS V14.01,2013-03-02 00:35:00,
2013-03-01 19:40:00,54.0,41.7,29.97,WNW,282,13.0,13.0,63,0.00,,---,0.00,VWS V14.01,2013-03-02 00:40:00,
2013-03-01 19:45:00,53.8,40.7,29.96,West,268,13.0,13.0,61,0.00,,---,0.00,VWS V14.01,2013-03-02 00:45:00,
2013-03-01 19:51:00,53.6,40.9,29.97,West,267,13.0,13.0,62,0.00,,---,0.00,VWS V14.01,2013-03-02 00:51:00,
2013-03-01 19:56:00,53.5,41.6,29.97,WNW,295,5.0,13.0,64,0.00,,---,0.00,VWS V14.01,2013-03-02 00:56:00,
2013-03-01 20:00:00,52.2,42.0,29.98,WNW,296,9.0,13.0,68,0.00,,---,0.00,VWS V14.01,2013-03-02 01:00:00,
2013-03-01 20:01:00,53.4,41.9,29.97,WNW,282,5.0,13.0,65,0.00,,---,0.00,VWS V14.01,2013-03-02 01:01:00,
2013-03-01 20:06:00,53.3,42.2,29.97,West,271,8.0,11.0,66,0.00,,---,0.00,VWS V14.01,2013-03-02 01:06:00,
2013-03-01 20:11:00,53.2,42.2,29.97,West,275,7.0,11.0,66,0.00,,---,0.00,VWS V14.01,2013-03-02 01:11:00,
2013-03-01 20:16:00,53.2,42.2,29.98,WNW,288,7.0,11.0,66,0.00,,---,0.00,VWS V14.01,2013-03-02 01:16:00,
2013-03-01 20:21:00,53.1,42.1,29.98,WNW,287,8.0,13.0,66,0.00,,---,0.00,VWS V14.01,2013-03-02 01:21:00,
2013-03-01 20:26:00,53.0,42.0,29.98,WNW,301,8.0,13.0,66,0.00,,---,0.00,VWS V14.01,2013-03-02 01:26:00,
2013-03-01 20:30:00,51.6,41.8,29.98,NW,308,3.0,14.0,69,0.00,,---,0.00,VWS V14.01,2013-03-02 01:30:00,
2013-03-01 20:31:00,52.8,41.8,29.98,West,275,5.0,14.0,66,0.00,,---,0.00,VWS V14.01,2013-03-02 01:31:00,
2013-03-01 20:36:00,52.7,42.1,29.98,WNW,287,6.0,13.0,67,0.00,,---,0.00,VWS V14.01,2013-03-02 01:36:00,
2013-03-01 20:41:00,52.6,42.3,29.98,NW,311,3.0,13.0,68,0.00,,---,0.00,VWS V14.01,2013-03-02 01:41:00,
2013-03-01 20:46:00,52.5,41.9,29.98,WNW,282,7.0,13.0,67,0.00,,---,0.00,VWS V14.01,2013-03-02 01:46:00,
2013-03-01 20:51:00,52.4,42.2,29.98,WNW,286,6.0,13.0,68,0.00,,---,0.00,VWS V14.01,2013-03-02 01:51:00,
2013-03-01 20:56:00,52.3,42.1,29.98,WNW,286,10.0,13.0,68,0.00,,---,0.00,VWS V14.01,2013-03-02 01:56:00,
2013-03-01 21:00:00,51.2,39.8,30.00,WNW,294,5.0,11.0,65,0.00,,---,0.00,VWS V14.01,2013-03-02 02:00:00,
2013-03-01 21:01:00,52.2,42.0,29.98,WNW,296,9.0,13.0,68,0.00,,---,0.00,VWS V14.01,2013-03-02 02:01:00,
2013-03-01 21:06:00,52.1,42.2,29.98,WNW,290,8.0,12.0,69,0.00,,---,0.00,VWS V14.01,2013-03-02 02:06:00,
2013-03-01 21:11:00,52.0,42.2,29.98,West,281,8.0,12.0,69,0.00,,---,0.00,VWS V14.01,2013-03-02 02:11:00,
2013-03-01 21:16:00,51.9,42.4,29.98,WNW,298,1.0,12.0,70,0.00,,---,0.00,VWS V14.01,2013-03-02 02:16:00,
2013-03-01 21:21:00,51.8,42.3,29.98,WNW,288,6.0,12.0,70,0.00,,---,0.00,VWS V14.01,2013-03-02 02:21:00,
2013-03-01 21:26:00,51.8,42.0,29.98,WNW,284,4.0,14.0,69,0.00,,---,0.00,VWS V14.01,2013-03-02 02:26:00,
2013-03-01 21:30:00,50.8,39.1,29.99,WNW,286,7.0,10.0,64,0.00,,---,0.00,VWS V14.01,2013-03-02 02:30:00,
2013-03-01 21:31:00,51.7,41.9,29.98,WNW,299,5.0,5.0,69,0.00,,---,0.00,VWS V14.01,2013-03-02 02:31:00,
2013-03-01 21:36:00,51.6,41.4,29.98,West,271,8.0,10.0,68,0.00,,---,0.00,VWS V14.01,2013-03-02 02:36:00,
2013-03-01 21:42:00,51.5,40.9,29.98,NW,311,4.0,11.0,67,0.00,,---,0.00,VWS V14.01,2013-03-02 02:42:00,
2013-03-01 21:47:00,51.5,40.1,29.99,NW,304,5.0,11.0,65,0.00,,---,0.00,VWS V14.01,2013-03-02 02:47:00,
2013-03-01 21:52:00,51.4,40.0,29.99,WNW,282,7.0,11.0,65,0.00,,---,0.00,VWS V14.01,2013-03-02 02:52:00,
2013-03-01 21:57:00,51.3,40.0,29.99,NW,307,5.0,11.0,65,0.00,,---,0.00,VWS V14.01,2013-03-02 02:57:00,
2013-03-01 22:00:00,50.2,38.1,30.01,West,279,4.0,10.0,63,0.00,,---,0.00,VWS V14.01,2013-03-02 03:00:00,
2013-03-01 22:02:00,51.2,39.8,29.99,NW,304,3.0,5.0,65,0.00,,---,0.00,VWS V14.01,2013-03-02 03:02:00,
2013-03-01 22:07:00,51.1,39.8,29.99,WNW,284,7.0,9.0,65,0.00,,---,0.00,VWS V14.01,2013-03-02 03:07:00,
2013-03-01 22:12:00,51.1,39.8,29.99,WNW,283,8.0,10.0,65,0.00,,---,0.00,VWS V14.01,2013-03-02 03:12:00,
2013-03-01 22:17:00,51.0,39.7,29.99,WNW,296,6.0,10.0,65,0.00,,---,0.00,VWS V14.01,2013-03-02 03:17:00,
2013-03-01 22:22:00,50.9,39.6,29.99,West,273,3.0,10.0,65,0.00,,---,0.00,VWS V14.01,2013-03-02 03:22:00,
2013-03-01 22:27:00,50.9,39.6,29.99,WNW,302,5.0,10.0,65,0.00,,---,0.00,VWS V14.01,2013-03-02 03:27:00,
2013-03-01 22:30:00,50.7,37.8,30.00,WNW,301,7.0,10.0,61,0.00,,---,0.00,VWS V14.01,2013-03-02 03:30:00,
2013-03-01 22:31:00,50.7,37.8,30.00,West,277,9.0,10.0,61,0.00,,---,0.00,VWS V14.01,2013-03-02 03:31:00,
2013-03-01 22:32:00,50.8,39.5,29.99,WNW,296,6.0,7.0,65,0.00,,---,0.00,VWS V14.01,2013-03-02 03:32:00,
2013-03-01 22:33:00,50.7,37.8,30.00,NW,315,4.0,10.0,61,0.00,,---,0.00,VWS V14.01,2013-03-02 03:33:00,
2013-03-01 22:34:00,50.7,37.8,30.00,NW,308,2.0,10.0,61,0.00,,---,0.00,VWS V14.01,2013-03-02 03:34:00,
2013-03-01 22:35:00,50.7,37.8,30.00,WNW,294,6.0,10.0,61,0.00,,---,0.00,VWS V14.01,2013-03-02 03:35:00,
2013-03-01 22:36:00,50.7,37.8,30.00,NW,311,7.0,10.0,61,0.00,,---,0.00,VWS V14.01,2013-03-02 03:36:00,
2013-03-01 22:37:00,50.7,39.4,29.99,WNW,301,5.0,7.0,65,0.00,,---,0.00,VWS V14.01,2013-03-02 03:37:00,
2013-03-01 22:38:00,50.7,37.8,30.00,WNW,302,5.0,10.0,61,0.00,,---,0.00,VWS V14.01,2013-03-02 03:38:00,
2013-03-01 22:39:00,50.6,37.7,30.00,NW,306,6.0,10.0,61,0.00,,---,0.00,VWS V14.01,2013-03-02 03:39:00,
2013-03-01 22:42:00,50.7,39.0,29.99,NW,306,5.0,8.0,64,0.00,,---,0.00,VWS V14.01,2013-03-02 03:42:00,
2013-03-01 22:47:00,50.8,39.1,29.99,WNW,286,2.0,8.0,64,0.00,,---,0.00,VWS V14.01,2013-03-02 03:47:00,
2013-03-01 22:52:00,50.8,38.7,29.99,NW,310,1.0,9.0,63,0.00,,---,0.00,VWS V14.01,2013-03-02 03:52:00,
2013-03-01 22:57:00,50.8,38.7,29.99,WNW,290,9.0,9.0,63,0.00,,---,0.00,VWS V14.01,2013-03-02 03:57:00,
2013-03-01 22:58:00,50.2,37.7,30.01,WNW,294,3.0,10.0,62,0.00,,---,0.00,VWS V14.01,2013-03-02 03:58:00,
2013-03-01 22:59:00,50.2,37.7,30.01,WNW,294,2.0,10.0,62,0.00,,---,0.00,VWS V14.01,2013-03-02 03:59:00,
2013-03-01 23:00:00,50.2,38.1,30.01,West,279,4.0,10.0,63,0.00,,---,0.00,VWS V14.01,2013-03-02 04:00:00,
2013-03-01 23:01:00,50.1,38.0,30.01,WNW,286,1.0,4.0,63,0.00,,---,0.00,VWS V14.01,2013-03-02 04:01:00,
2013-03-01 23:02:00,50.1,38.0,30.01,NW,306,5.0,5.0,63,0.00,,---,0.00,VWS V14.01,2013-03-02 04:02:00,
2013-03-01 23:03:00,50.1,38.0,30.01,NW,306,1.0,5.0,63,0.00,,---,0.00,VWS V14.01,2013-03-02 04:03:00,
2013-03-01 23:04:00,50.1,38.0,30.01,NW,306,2.0,5.0,63,0.00,,---,0.00,VWS V14.01,2013-03-02 04:04:00,
2013-03-01 23:05:00,50.1,38.0,30.01,WNW,290,3.0,5.0,63,0.00,,---,0.00,VWS V14.01,2013-03-02 04:05:00,
2013-03-01 23:06:00,50.0,37.9,30.01,NW,320,6.0,6.0,63,0.00,,---,0.00,VWS V14.01,2013-03-02 04:06:00,
2013-03-01 23:07:00,50.8,38.3,30.00,WNW,293,3.0,3.0,62,0.00,,---,0.00,VWS V14.01,2013-03-02 04:07:00,
2013-03-01 23:08:00,50.0,37.9,30.00,WNW,294,5.0,7.0,63,0.00,,---,0.00,VWS V14.01,2013-03-02 04:08:00,
2013-03-01 23:12:00,50.8,38.3,30.00,NW,304,5.0,8.0,62,0.00,,---,0.00,VWS V14.01,2013-03-02 04:12:00,
2013-03-01 23:17:00,50.8,38.3,29.99,NNW,330,5.0,10.0,62,0.00,,---,0.00,VWS V14.01,2013-03-02 04:17:00,
2013-03-01 23:22:00,50.7,38.2,30.00,WNW,294,2.0,10.0,62,0.00,,---,0.00,VWS V14.01,2013-03-02 04:22:00,
2013-03-01 23:27:00,50.7,38.2,30.00,WNW,296,5.0,10.0,62,0.00,,---,0.00,VWS V14.01,2013-03-02 04:27:00,
2013-03-01 23:30:00,49.1,37.1,30.00,NW,311,3.0,10.0,63,0.00,,---,0.00,VWS V14.01,2013-03-02 04:30:00,
2013-03-01 23:39:00,50.7,37.8,30.00,WNW,289,5.0,10.0,61,0.00,,---,0.00,VWS V14.01,2013-03-02 04:39:00,
2013-03-01 23:44:00,50.6,37.7,30.00,NW,321,2.0,10.0,61,0.00,,---,0.00,VWS V14.01,2013-03-02 04:44:00,
2013-03-01 23:50:00,50.5,37.6,30.01,NW,304,3.0,10.0,61,0.00,,---,0.00,VWS V14.01,2013-03-02 04:50:00,
2013-03-01 23:55:00,50.3,37.8,30.01,WNW,294,2.0,10.0,62,0.00,,---,0.00,VWS V14.01,2013-03-02 04:55:00,